Rogers City, MI

1:56 AM EDT on October 01, 2016 (GMT -0400)
Presque Isle County

Weather History for KPZQ - September, 2013

Change the Weather History Date:

Saturday, September 14, 2013

  Actual Average (KAPN) Record (KAPN)
Temperature  
Mean Temperature 54 °F 58 °F  
Max Temperature 68 °F 70 °F 94 °F (1939)
Min Temperature 41 °F 47 °F 26 °F (1963)
Degree Days  
Heating Degree Days 10 7  
Month to date heating degree days 77  
Since 1 July heating degree days 192  
Cooling Degree Days 0 1  
Month to date cooling degree days 16  
Year to date cooling degree days 282  
Growing Degree Days 4 (Base 50)    
Moisture  
Dew Point 45 °F    
Average Humidity 74    
Maximum Humidity 93    
Minimum Humidity 48    
Precipitation  
Precipitation 0.00 in 0.10 in 1.65 in (1940)
Month to date precipitation 1.40  
Year to date precipitation 20.18  
Sea Level Pressure  
Sea Level Pressure 30.09 in    
Wind  
Wind Speed 5 mph (WSW)    
Max Wind Speed 9 mph    
Max Gust Speed 16 mph    
Visibility 10 miles    
Events      
T = Trace of Precipitation, MM = Missing Value Source: NWS Daily Summary

Daily Weather History Graph

Daily Weather History Graph

Search for Another Location

Airport or City:

Trip Planner

Search our weather history database for the weather conditions in past years. The results will help you decide how hot, cold, wet, or windy it might be!

Date:

Astronomy

Sep. 14, 2013 Rise Set
Actual Time 7:12 AM EDT 7:47 PM EDT
Civil Twilight 6:43 AM EDT 8:17 PM EDT
Nautical Twilight 6:07 AM EDT 8:52 PM EDT
Astronomical Twilight 5:31 AM EDT 9:29 PM EDT
Moon 4:39 PM EDT (9/14) 1:31 AM EDT (9/14)
Length of Visible Light 13h 34m
Length of Day
12h 34m
Waxing Gibbous, 72% of the Moon is Illuminated
Sep 14
Waxing Gibbous
Sep 19
Full
Sep 26
Last Quarter
Oct 4
New
Oct 11
First Quarter

Hourly Weather History & Observations

Time (EDT) Temp. Windchill Dew Point Humidity Pressure Visibility Wind Dir Wind Speed Gust Speed Precip Events Conditions
12:15 AM 44.8 °F 42.4 °F 41.5 °F 88% 30.14 in 10.0 mi West 4.6 mph - N/A   Clear
12:35 AM 42.8 °F 40.1 °F 40.1 °F 90% 30.14 in 10.0 mi WSW 4.6 mph - N/A   Clear
12:55 AM 42.8 °F 40.1 °F 40.1 °F 90% 30.14 in 10.0 mi WSW 4.6 mph - N/A   Clear
1:15 AM 42.4 °F 39.6 °F 40.1 °F 91% 30.14 in 10.0 mi WSW 4.6 mph - N/A   Clear
1:34 AM 42.4 °F 38.8 °F 39.9 °F 91% 30.14 in 10.0 mi WSW 5.8 mph - N/A   Clear
1:55 AM 42.1 °F 39.2 °F 40.1 °F 93% 30.14 in 10.0 mi West 4.6 mph - N/A   Clear
2:15 AM 43.0 °F 39.5 °F 40.3 °F 90% 30.14 in 10.0 mi WSW 5.8 mph - N/A   Clear
2:35 AM 42.8 °F 40.1 °F 40.3 °F 91% 30.14 in 10.0 mi WSW 4.6 mph - N/A   Clear
2:55 AM 42.3 °F 37.9 °F 40.1 °F 92% 30.14 in 10.0 mi WSW 6.9 mph - N/A   Clear
3:15 AM 42.4 °F 38.8 °F 40.1 °F 91% 30.14 in 10.0 mi WSW 5.8 mph - N/A   Clear
3:35 AM 42.3 °F 38.6 °F 40.1 °F 92% 30.14 in 10.0 mi WSW 5.8 mph - N/A   Clear
3:55 AM 41.9 °F 39.0 °F 39.6 °F 91% 30.14 in 10.0 mi WSW 4.6 mph - N/A   Clear
4:15 AM 41.9 °F 37.5 °F 40.1 °F 93% 30.14 in 10.0 mi SW 6.9 mph - N/A   Clear
4:35 AM 41.4 °F 36.8 °F 39.4 °F 93% 30.14 in 10.0 mi SW 6.9 mph - N/A   Clear
4:55 AM 42.3 °F 37.9 °F 40.3 °F 93% 30.14 in 10.0 mi WSW 6.9 mph - N/A   Clear
5:14 AM 42.4 °F 38.1 °F 40.5 °F 93% 30.14 in 10.0 mi WSW 6.9 mph - N/A   Clear
5:35 AM 42.1 °F 37.7 °F 40.1 °F 93% 30.14 in 10.0 mi SW 6.9 mph - N/A   Clear
5:55 AM 41.9 °F 37.5 °F 40.1 °F 93% 30.14 in 10.0 mi WSW 6.9 mph - N/A   Clear
6:14 AM 41.9 °F 37.5 °F 39.6 °F 91% 30.14 in 10.0 mi WSW 6.9 mph - N/A   Clear
6:35 AM 41.5 °F 38.6 °F 39.4 °F 92% 30.13 in 10.0 mi WSW 4.6 mph - N/A   Clear
6:55 AM 41.4 °F 36.8 °F 39.4 °F 93% 30.14 in 10.0 mi WSW 6.9 mph - N/A   Clear
7:15 AM 41.2 °F 36.6 °F 39.2 °F 93% 30.14 in 10.0 mi SW 6.9 mph - N/A   Clear
7:35 AM 41.4 °F 38.4 °F 39.4 °F 93% 30.15 in 10.0 mi WSW 4.6 mph - N/A   Clear
7:55 AM 42.6 °F 39.9 °F 40.5 °F 92% 30.15 in 10.0 mi WSW 4.6 mph - N/A   Clear
8:15 AM 44.1 °F 40.8 °F 41.4 °F 90% 30.16 in 10.0 mi WSW 5.8 mph - N/A   Clear
8:35 AM 46.6 °F - 42.8 °F 87% 30.16 in 10.0 mi SW 6.9 mph - N/A   Clear
8:55 AM 48.6 °F - 43.7 °F 83% 30.16 in 10.0 mi WSW 6.9 mph - N/A   Clear
9:15 AM 50.0 °F - 43.7 °F 79% 30.15 in 10.0 mi SW 6.9 mph - N/A   Clear
9:35 AM 51.8 °F - 43.7 °F 74% 30.15 in 10.0 mi WSW 5.8 mph - N/A   Clear
9:54 AM 53.1 °F - 44.2 °F 72% 30.16 in 10.0 mi SW 4.6 mph - N/A   Clear
10:15 AM 55.0 °F - 44.4 °F 67% 30.16 in 10.0 mi WSW 4.6 mph - N/A   Clear
10:35 AM 56.8 °F - 45.7 °F 66% 30.15 in 10.0 mi WSW 6.9 mph - N/A   Clear
10:55 AM 58.3 °F - 45.9 °F 63% 30.15 in 10.0 mi West 8.1 mph - N/A   Clear
11:15 AM 59.9 °F - 46.4 °F 61% 30.14 in 10.0 mi WSW 8.1 mph - N/A   Clear
11:35 AM 61.0 °F - 46.9 °F 60% 30.13 in 10.0 mi WSW 5.8 mph - N/A   Clear
11:55 AM 62.6 °F - 48.4 °F 60% 30.13 in 10.0 mi West 5.8 mph - N/A   Clear
12:15 PM 63.1 °F - 48.7 °F 59% 30.12 in 10.0 mi West 6.9 mph - N/A   Clear
12:35 PM 63.7 °F - 48.6 °F 58% 30.11 in 10.0 mi WSW 6.9 mph 16.1 mph N/A   Clear
12:55 PM 64.9 °F - 47.8 °F 54% 30.10 in 10.0 mi WNW 6.9 mph - N/A   Scattered Clouds
1:15 PM 64.9 °F - 48.4 °F 55% 30.09 in 10.0 mi West 6.9 mph - N/A   Mostly Cloudy
1:34 PM 66.0 °F - 48.7 °F 54% 30.09 in 10.0 mi West 6.9 mph - N/A   Mostly Cloudy
1:55 PM 66.4 °F - 48.4 °F 52% 30.07 in 10.0 mi WSW 8.1 mph - N/A   Mostly Cloudy
2:15 PM 65.8 °F - 48.4 °F 53% 30.07 in 10.0 mi West 9.2 mph - N/A   Mostly Cloudy
2:35 PM 67.8 °F - 47.5 °F 48% 30.06 in 10.0 mi SW 9.2 mph - N/A   Mostly Cloudy
2:55 PM 67.3 °F - 47.1 °F 48% 30.06 in 10.0 mi WNW 8.1 mph - N/A   Mostly Cloudy
3:15 PM 68.0 °F - 48.0 °F 49% 30.05 in 10.0 mi WSW 8.1 mph - N/A   Scattered Clouds
3:35 PM 67.1 °F - 47.5 °F 49% 30.05 in 10.0 mi West 4.6 mph - N/A   Scattered Clouds
3:55 PM 68.2 °F - 47.8 °F 48% 30.05 in 10.0 mi West 9.2 mph - N/A   Scattered Clouds
4:15 PM 68.4 °F - 47.7 °F 48% 30.04 in 10.0 mi West 5.8 mph - N/A   Scattered Clouds
4:35 PM 67.1 °F - 47.7 °F 50% 30.03 in 10.0 mi WSW 5.8 mph - N/A   Mostly Cloudy
4:55 PM 68.0 °F - 48.9 °F 50% 30.03 in 10.0 mi WSW 4.6 mph - N/A   Mostly Cloudy
5:15 PM 68.5 °F - 48.0 °F 48% 30.04 in 10.0 mi West 6.9 mph - N/A   Scattered Clouds
5:35 PM 68.0 °F - 47.8 °F 48% 30.04 in 10.0 mi WSW 5.8 mph - N/A   Clear
5:55 PM 68.4 °F - 48.0 °F 48% 30.04 in 10.0 mi WSW 4.6 mph - N/A   Clear
6:15 PM 68.0 °F - 47.8 °F 48% 30.04 in 10.0 mi West 5.8 mph - N/A   Clear
6:34 PM 67.1 °F - 48.2 °F 51% 30.04 in 10.0 mi West 4.6 mph - N/A   Clear
6:55 PM 66.2 °F - 48.2 °F 52% 30.03 in 10.0 mi West 3.5 mph - N/A   Clear
7:15 PM 63.9 °F - 48.6 °F 57% 30.04 in 10.0 mi West 3.5 mph - N/A   Clear
7:34 PM 62.6 °F - 49.3 °F 62% 30.03 in 10.0 mi Calm Calm - N/A   Clear
7:55 PM 57.6 °F - 50.0 °F 76% 30.03 in 10.0 mi Calm Calm - N/A   Clear
8:15 PM 55.6 °F - 50.2 °F 82% 30.03 in 10.0 mi Calm Calm - N/A   Clear
8:35 PM 53.6 °F - 49.6 °F 86% 30.03 in 10.0 mi Calm Calm - N/A   Clear
8:55 PM 52.7 °F - 49.3 °F 88% 30.03 in 10.0 mi Calm Calm - N/A   Clear
9:15 PM 54.1 °F - 50.0 °F 86% 30.02 in 10.0 mi SW 3.5 mph - N/A   Clear
9:35 PM 54.5 °F - 49.5 °F 83% 30.02 in 10.0 mi WSW 3.5 mph - N/A   Clear
9:55 PM 54.7 °F - 49.6 °F 83% 30.03 in 10.0 mi WSW 3.5 mph - N/A   Clear
10:15 PM 54.7 °F - 49.3 °F 82% 30.03 in 10.0 mi SSW 3.5 mph - N/A   Clear
10:34 PM 54.3 °F - 48.9 °F 82% 30.02 in 10.0 mi SSW 3.5 mph - N/A   Clear
10:55 PM 55.0 °F - 49.1 °F 80% 30.02 in 10.0 mi SW 4.6 mph - N/A   Clear
11:15 PM 55.2 °F - 49.3 °F 80% 30.02 in 10.0 mi SSW 3.5 mph - N/A   Clear
11:35 PM 55.2 °F - 49.1 °F 80% 30.02 in 10.0 mi SSW 4.6 mph - N/A   Clear
11:55 PM 55.4 °F - 49.1 °F 79% 30.02 in 10.0 mi SSW 4.6 mph - N/A   Clear